Regional Weather Roundup
Issued by NWS Columbia, SC

Home | Current Version | Previous Version | Text Only | Print | Product List | Glossary On
Versions: 1 2 3 4 5 6 7 8 9 10 11 12 13 14 15 16 17 18 19 20 21 22 23 24 25 26 27 28 29 30 31 32 33 34 35 36 37 38 39 40 41 42 43 44 45 46 47 48 49 50
000
ASUS42 KCAE 271510
RWRCAE
REGIONAL WEATHER ROUNDUP
NATIONAL WEATHER SERVICE COLUMBIA SC
1100 AM EDT FRI MAR 27 2015

NOTE: "FAIR" INDICATES FEW OR NO CLOUDS BELOW 12,000 FEET WITH NO
SIGNIFICANT WEATHER AND/OR OBSTRUCTIONS TO VISIBILITY.

NOT ALL STATIONS ARE QUALITY CONTROLLED BY THE NATIONAL
WEATHER SERVICE. USE DATA WITH CAUTION...ESPECIALLY
DEWPOINT OBSERVATIONS.

SCZ001>056-GAZ040-063>065-077-271600-
...UPSTATE SOUTH CAROLINA...

CITY           SKY/WX    TMP DP  RH WIND       PRES   REMARKS
ANDERSON       CLOUDY    54  47  77 NE6       29.73R
LIBERTY        CLOUDY    50  46  86 E3        29.73R
SPARTANBURG    PTSUNNY   52  52 100 NE10      29.75R
CLEMSON        CLOUDY    53  44  71 E7        29.74R
GREENVILLE     CLOUDY    50  43  77 NE9       29.75R
GREENWOOD      CLOUDY    55  51  86 N9        29.74R
GREER          CLOUDY    50  44  80 NE12      29.73R
ROCK HILL      LGT RAIN  48  45  89 NE13      29.77R
CHESTER        DRIZZLE   52  50  93 NE15G23   29.75S
LAURENS        CLOUDY    52  52 100 NE10G18   29.74R


...CENTRAL SOUTH CAROLINA...

CITY           SKY/WX    TMP DP  RH WIND       PRES   REMARKS
COLUMBIA APT   CLOUDY    65  63  93 N9        29.68S
COLUMBIA OWENS CLOUDY    63  59  87 N7        29.69F
DARLINGTON     CLOUDY    55  50  82 N13       29.73R
FLORENCE       CLOUDY    68  59  73 W12       29.68R
MCENTIRE ANGB  PTSUNNY   64  62  93 W8        29.68F
ORANGEBURG     CLOUDY    70  60  70 SW14      29.69S
SUMTER SHAW    LGT RAIN  64  61  88 W8        29.67R FOG
NEWBERRY       CLOUDY    52  50  93 NE20      29.75R
AIKEN          CLOUDY    64  57  77 SW7       29.72F
BARNWELL       CLOUDY    70  63  78 SW8       29.70S
MANNING        CLOUDY    64  59  82 SW12      29.69F
CAMDEN         LGT RAIN  54  52  94 N14       29.73R
LANCASTER      LGT RAIN  50  50 100 NE7G18    29.75R
WINNSBORO      PTSUNNY   52  52 100 N14G21    29.72R


...EASTERN AND COASTAL SOUTH CAROLINA...

CITY           SKY/WX    TMP DP  RH WIND       PRES   REMARKS
MYRTLE BEACH   PTSUNNY   72  63  73 SW9       29.70F
N MYRTLE BCH   PTSUNNY   66  61  84 S9        29.67F
CONWAY         CLOUDY    70  61  73 SW6       29.68S HAZE
MARION         CLOUDY    68  61  77 SW9       29.68S
HARTSVILLE     CLOUDY    52  50  93 N10G20    29.71S
FLORENCE       CLOUDY    68  59  73 W12       29.68R
DARLINGTON     CLOUDY    55  50  82 N13       29.73R
CHARLESTON APT PTSUNNY   69  61  75 SW16      29.72F
MOUNT PLEASANT PTSUNNY   70  63  78 S12G21    29.72F
WALTERBORO     CLOUDY    66  61  82 SW9       29.73R
BEAUFORT       PTSUNNY   69  60  73 SW18G25   29.74S


...EASTERN GEORGIA...

CITY           SKY/WX    TMP DP  RH WIND       PRES   REMARKS
AUGUSTA BUSH F PTSUNNY   70  56  61 W14       29.69S
AUGUSTA DANIEL PTSUNNY   68  56  65 W8        29.70S
THOMSON        CLOUDY    60  58  91 W15       29.78R
WASHINGTON     PTSUNNY   57  54  88 W9        29.75R
CLAXTON        CLOUDY    68  63  83 SW9       29.74F
SYLVANIA       CLOUDY    68  63  84 W8        29.73F
STATESBORO     PTSUNNY   69  67  92 SW10G17   29.73F
SAVANNAH       PTSUNNY   69  60  73 SW14G20   29.75S


...SOUTHERN NORTH CAROLINA...

CITY           SKY/WX    TMP DP  RH WIND       PRES   REMARKS
CHARLOTTE      LGT RAIN  48  43  81 N13G21    29.78R
MONROE         LGT RAIN  48  44  86 N14G23    29.75R
WADESBORO      CLOUDY    50  47  89 N14       29.75R
ROCKINGHAM       N/A     50  48  92 N9G16     29.73R
RUTHERFORDTON  CLOUDY    46  42  85 NE5       29.78R
ASHEVILLE      CLOUDY    43  35  73 N16G25    29.78R

$$


USA.gov is the U.S. government's official web portal to all federal, state and local government web resources and services.